Gainesville, GA

6:03 AM EDT on March 29, 2017 (GMT -0400)
Gilmer Memorial

Weather History for KGVL - June, 2012

Change the Weather History Date:

Friday, June 8, 2012

  Actual Average Record
Temperature  
Mean Temperature 72 °F 74 °F  
Max Temperature 82 °F 83 °F 97 °F (1952)
Min Temperature 63 °F 65 °F 45 °F (1977)
Cooling Degree Days 8 9  
Month to date cooling degree days 68  
Year to date cooling degree days 243  
Since 1 June cooling degree days 68  
Growing Degree Days 22 (Base 50)    
Moisture  
Dew Point 59 °F    
Average Humidity 64    
Maximum Humidity 87    
Minimum Humidity 44    
Precipitation  
Precipitation 0.00 in 0.14 in 1.83 in (1965)
Month to date precipitation 1.10  
Year to date precipitation 24.02  
Sea Level Pressure  
Sea Level Pressure 30.03 in    
Wind  
Wind Speed 2 mph (ESE)    
Max Wind Speed 5 mph    
Max Gust Speed -    
Visibility 10 miles    
Events      
T = Trace of Precipitation, MM = Missing Value Source: NWS Daily Summary

Daily Weather History Graph

Daily Weather History Graph

Search for Another Location

Airport or City:

Trip Planner

Search our weather history database for the weather conditions in past years. The results will help you decide how hot, cold, wet, or windy it might be!

Date:

Astronomy

Jun. 08, 2012 Rise Set
Actual Time 6:22 AM EDT 8:46 PM EDT
Civil Twilight 5:53 AM EDT 9:15 PM EDT
Nautical Twilight 5:17 AM EDT 9:51 PM EDT
Astronomical Twilight 4:38 AM EDT 10:30 PM EDT
Moon No Moon Rise 10:53 AM EDT (6/8)
Length of Visible Light 15h 21m
Length of Day
14h 23m
Waning Gibbous, 77% of the Moon is Illuminated
Jun 8
Waning Gibbous
Jun 11
Last Quarter
Jun 19
New
Jun 26
First Quarter
Jul 3
Full

Hourly Weather History & Observations

Time (EDT) Temp. Heat Index Dew Point Humidity Pressure Visibility Wind Dir Wind Speed Gust Speed Precip Events Conditions
12:53 AM 66.9 °F - 59.0 °F 76% 30.03 in 10.0 mi ENE 3.5 mph - N/A   Partly Cloudy
1:53 AM 66.0 °F - 59.0 °F 78% 30.02 in 10.0 mi Calm Calm - N/A   Clear
2:53 AM 64.9 °F - 59.0 °F 81% 30.02 in 10.0 mi NNE 3.5 mph - N/A   Clear
3:53 AM 64.9 °F - 59.0 °F 81% 30.02 in 10.0 mi Calm Calm - N/A   Scattered Clouds
4:53 AM 64.9 °F - 59.0 °F 81% 30.02 in 10.0 mi Calm Calm - N/A   Scattered Clouds
5:53 AM 64.0 °F - 59.0 °F 84% 30.04 in 10.0 mi Calm Calm - N/A   Clear
6:53 AM 63.0 °F - 59.0 °F 87% 30.06 in 10.0 mi Calm Calm - N/A   Clear
7:53 AM 66.0 °F - 60.1 °F 81% 30.07 in 10.0 mi Calm Calm - N/A   Clear
8:53 AM 69.1 °F - 60.1 °F 73% 30.07 in 10.0 mi ENE 3.5 mph - N/A   Clear
9:53 AM 73.0 °F - 60.1 °F 64% 30.08 in 10.0 mi Calm Calm - N/A   Clear
10:53 AM 75.9 °F - 60.1 °F 58% 30.08 in 10.0 mi Calm Calm - N/A   Partly Cloudy
11:53 AM 77.0 °F - 60.1 °F 56% 30.08 in 10.0 mi Calm Calm - N/A   Overcast
12:53 PM 78.1 °F - 59.0 °F 52% 30.07 in 10.0 mi Variable 3.5 mph - N/A   Mostly Cloudy
1:53 PM 79.0 °F - 59.0 °F 50% 30.04 in 10.0 mi Variable 3.5 mph - N/A   Partly Cloudy
2:53 PM 81.0 °F 81.3 °F 59.0 °F 47% 30.02 in 10.0 mi SE 4.6 mph - N/A   Clear
4:53 PM 82.0 °F 82.0 °F 57.9 °F 44% 29.99 in 10.0 mi Calm Calm - N/A   Clear
5:53 PM 79.0 °F - 59.0 °F 50% 29.99 in 10.0 mi South 4.6 mph - N/A   Scattered Clouds
6:53 PM 80.1 °F 80.6 °F 57.9 °F 47% 29.99 in 10.0 mi South 3.5 mph - N/A   Partly Cloudy
7:53 PM 79.0 °F - 57.9 °F 48% 30.00 in 10.0 mi ESE 4.6 mph - N/A   Mostly Cloudy
8:53 PM 77.0 °F - 59.0 °F 54% 30.01 in 10.0 mi SE 3.5 mph - N/A   Overcast
9:53 PM 75.0 °F - 57.9 °F 55% 30.02 in 10.0 mi East 3.5 mph - N/A   Overcast
10:53 PM 73.9 °F - 57.9 °F 57% 30.03 in 10.0 mi SE 4.6 mph - N/A   Mostly Cloudy
11:53 PM 73.9 °F - 57.9 °F 57% 30.02 in 10.0 mi SE 3.5 mph - N/A   Clear